Omaha, NE

7:56 PM CDT on March 29, 2017 (GMT -0500)
Eppley Airfield

Weather History for KOMA - June, 2014

Change the Weather History Date:

Saturday, June 21, 2014

  Actual Average Record
Temperature  
Mean Temperature 76 °F 74 °F  
Max Temperature 86 °F 85 °F 104 °F (1988)
Min Temperature 66 °F 63 °F 45 °F (1972)
Degree Days  
Heating Degree Days 0 0  
Month to date heating degree days 6 15  
Since 1 June heating degree days 6 15  
Since 1 July heating degree days 6536 6165  
Cooling Degree Days 11 9  
Month to date cooling degree days 174 138  
Year to date cooling degree days 317 220  
Since 1 June cooling degree days 174 138  
Growing Degree Days 26 (Base 50)    
Moisture  
Dew Point 64 °F    
Average Humidity 71    
Maximum Humidity 93    
Minimum Humidity 48    
Precipitation  
Precipitation 0.58 in 0.14 in 2.18 in (1997)
Month to date precipitation 9.12 3.03  
Year to date precipitation 15.94 14.31  
Snow  
Snow 0.00 in 0.00 in - ()
Month to date snowfall 0.0 0.0  
Since 1 July snowfall 17.8 26.4  
Snow Depth 0.00 in    
Sea Level Pressure  
Sea Level Pressure 29.92 in    
Wind  
Wind Speed 8 mph (SSE)    
Max Wind Speed 31 mph    
Max Gust Speed 38 mph    
Visibility 9 miles    
Events Rain , Thunderstorm    
T = Trace of Precipitation, MM = Missing Value Source: NWS Daily Summary

Daily Weather History Graph

Daily Weather History Graph

Search for Another Location

Airport or City:

Trip Planner

Search our weather history database for the weather conditions in past years. The results will help you decide how hot, cold, wet, or windy it might be!

Date:

Astronomy

Jun. 21, 2014 Rise Set
Actual Time 5:50 AM CDT 9:00 PM CDT
Civil Twilight 5:16 AM CDT 9:34 PM CDT
Nautical Twilight 4:33 AM CDT 10:17 PM CDT
Astronomical Twilight 3:41 AM CDT 11:09 PM CDT
Moon 2:06 AM CDT (6/21) 3:37 PM CDT (6/21)
Length of Visible Light 16h 17m
Length of Day
15h 09m
Waning Crescent, 30% of the Moon is Illuminated
Jun 21
Waning Crescent
Jun 27
New
Jul 5
First Quarter
Jul 12
Full
Jul 18
Last Quarter

Hourly Weather History & Observations

Time (CDT) Temp. Heat Index Dew Point Humidity Pressure Visibility Wind Dir Wind Speed Gust Speed Precip Events Conditions
12:52 AM 68.0 °F - 63.0 °F 84% 30.03 in 8.0 mi West 27.6 mph 36.8 mph 0.08 in Rain , Thunderstorm Thunderstorms and Rain
12:58 AM 66.9 °F - 63.0 °F 87% 30.06 in 1.0 mi West 25.3 mph 39.1 mph 0.11 in Rain , Thunderstorm Thunderstorms and Rain
1:11 AM 66.0 °F - 62.1 °F 87% 30.09 in 2.0 mi West 12.7 mph 32.2 mph 0.32 in Rain , Thunderstorm Thunderstorms and Rain
1:27 AM 66.0 °F - 62.1 °F 87% 30.11 in 9.0 mi SW 8.1 mph 19.6 mph 0.37 in Rain , Thunderstorm Light Thunderstorms and Rain
1:52 AM 66.0 °F - 64.0 °F 93% 30.06 in 5.0 mi NNE 11.5 mph - 0.46 in Rain , Thunderstorm Light Thunderstorms and Rain
2:52 AM 68.0 °F - 61.0 °F 78% 29.99 in 10.0 mi Variable 3.5 mph - 0.19 in Rain , Thunderstorm Light Thunderstorms and Rain
3:33 AM 66.9 °F - 63.0 °F 87% 30.02 in 10.0 mi SW 5.8 mph - 0.04 in Rain Light Rain
3:52 AM 66.0 °F - 63.0 °F 90% 29.98 in 10.0 mi WSW 5.8 mph - 0.05 in Rain Light Rain
4:52 AM 66.9 °F - 62.1 °F 84% 29.88 in 10.0 mi South 16.1 mph - 0.00 in   Overcast
5:52 AM 68.0 °F - 61.0 °F 78% 29.87 in 10.0 mi South 18.4 mph - N/A   Overcast
6:52 AM 68.0 °F - 61.0 °F 78% 29.90 in 10.0 mi South 5.8 mph - N/A   Overcast
7:52 AM 70.0 °F - 61.0 °F 73% 29.88 in 10.0 mi Calm Calm - N/A   Overcast
8:52 AM 71.1 °F - 62.1 °F 73% 29.89 in 10.0 mi North 4.6 mph - N/A   Overcast
9:52 AM 75.9 °F - 63.0 °F 64% 29.90 in 10.0 mi NNE 4.6 mph - N/A   Mostly Cloudy
10:52 AM 77.0 °F - 63.0 °F 62% 29.90 in 10.0 mi Calm Calm - N/A   Mostly Cloudy
11:52 AM 77.0 °F - 63.0 °F 62% 29.92 in 10.0 mi ESE 3.5 mph - N/A   Mostly Cloudy
12:52 PM 79.0 °F - 64.0 °F 60% 29.93 in 10.0 mi SSE 9.2 mph - N/A   Mostly Cloudy
1:52 PM 81.0 °F 82.5 °F 64.0 °F 56% 29.91 in 10.0 mi SE 6.9 mph - N/A   Mostly Cloudy
2:52 PM 84.0 °F 84.9 °F 63.0 °F 49% 29.88 in 10.0 mi SE 4.6 mph - N/A   Mostly Cloudy
3:52 PM 84.0 °F 86.3 °F 66.0 °F 55% 29.87 in 10.0 mi ESE 10.4 mph - N/A   Mostly Cloudy
4:52 PM 84.9 °F 88.2 °F 68.0 °F 57% 29.85 in 10.0 mi SE 13.8 mph 18.4 mph N/A   Mostly Cloudy
5:52 PM 84.9 °F 88.8 °F 69.1 °F 59% 29.83 in 10.0 mi SE 10.4 mph - N/A   Mostly Cloudy
6:52 PM 84.9 °F 88.2 °F 68.0 °F 57% 29.82 in 10.0 mi South 10.4 mph - N/A   Scattered Clouds
7:52 PM 84.0 °F 86.5 °F 66.9 °F 56% 29.81 in 10.0 mi South 10.4 mph - N/A   Scattered Clouds
8:52 PM 80.1 °F 82.9 °F 69.1 °F 69% 29.81 in 10.0 mi SE 10.4 mph - N/A   Scattered Clouds
9:52 PM 78.1 °F - 69.1 °F 74% 29.82 in 10.0 mi SSE 10.4 mph - N/A   Scattered Clouds
10:52 PM 77.0 °F - 66.9 °F 71% 29.85 in 10.0 mi SE 5.8 mph - N/A   Scattered Clouds
11:52 PM 77.0 °F - 68.0 °F 74% 29.86 in 10.0 mi ESE 6.9 mph - N/A   Scattered Clouds